Battle Creek, MI

1:19 PM EST on December 15, 2019 (GMT -0500)
Kellogg

Weather History for KBTL - July, 2019

Change the Weather History Date:

Thursday, July 11, 2019

  Actual Average Record
Temperature  
Mean Temperature 73 °F 71 °F  
Max Temperature 84 °F 83 °F 90 °F (2005)
Min Temperature 61 °F 59 °F 48 °F (1996)
Degree Days  
Heating Degree Days 0 0  
Month to date heating degree days 0 6  
Since 1 June heating degree days 46 63  
Since 1 July heating degree days 0 6  
Cooling Degree Days 8 7  
Month to date cooling degree days 131 73  
Year to date cooling degree days 272 237  
Since 1 June cooling degree days 256 199  
Growing Degree Days 23 (Base 50)    
Moisture  
Dew Point 63 °F    
Average Humidity 67    
Maximum Humidity 84    
Minimum Humidity 49    
Precipitation  
Precipitation 0.00 in 0.11 in 0.53 in (2011)
Month to date precipitation 1.07 1.18  
Year to date precipitation 19.36 15.89  
Sea Level Pressure  
Sea Level Pressure 29.88 in    
Wind  
Wind Speed 9 mph (WNW)    
Max Wind Speed 21 mph    
Max Gust Speed 27 mph    
Visibility 10 miles    
Events Thunderstorm    
T = Trace of Precipitation, MM = Missing Value Source: NWS Daily Summary

Daily Weather History Graph

Daily Weather History Graph

Search for Another Location

Airport or City:

Astronomy

Jul. 11, 2019 Rise Set
Actual Time 6:14 AM EDT 9:18 PM EDT
Civil Twilight 5:40 AM EDT 9:52 PM EDT
Nautical Twilight 4:57 AM EDT 10:35 PM EDT
Astronomical Twilight 4:05 AM EDT 11:26 PM EDT
Moon 4:27 PM EDT (7/11) 2:28 AM EDT (7/11)
Length of Visible Light 16h 11m
Length of Day
15h 03m
Waxing Gibbous, 74% of the Moon is Illuminated
Jul 11
Waxing Gibbous
Jul 16
Full
Jul 24
Last Quarter
Jul 31
New
Aug 7
First Quarter

Hourly Weather History & Observations

Time (EDT) Temp. Heat Index Dew Point Humidity Pressure Visibility Wind Dir Wind Speed Gust Speed Precip Events Conditions
12:53 AM 78.1 °F - 66.9 °F 68% 29.84 in 10.0 mi West 8.1 mph - N/A   Clear
1:24 AM 78.1 °F - 64.9 °F 64% 29.90 in 10.0 mi SW 15.0 mph - N/A Thunderstorm Scattered Clouds
1:39 AM 78.1 °F - 64.9 °F 64% 29.89 in 10.0 mi West 8.1 mph - N/A Thunderstorm Scattered Clouds
1:53 AM 75.9 °F - 64.0 °F 67% 29.86 in 10.0 mi WNW 11.5 mph - N/A   Partly Cloudy
2:53 AM 73.0 °F - 63.0 °F 71% 29.85 in 10.0 mi WNW 6.9 mph - N/A   Clear
3:53 AM 71.1 °F - 62.1 °F 73% 29.85 in 10.0 mi WNW 6.9 mph - N/A   Clear
4:53 AM 69.1 °F - 62.1 °F 78% 29.86 in 10.0 mi West 5.8 mph - N/A   Clear
5:53 AM 68.0 °F - 62.1 °F 81% 29.86 in 10.0 mi WNW 5.8 mph - N/A   Partly Cloudy
6:53 AM 68.0 °F - 63.0 °F 84% 29.86 in 10.0 mi West 5.8 mph - N/A   Clear
7:53 AM 71.1 °F - 64.0 °F 78% 29.86 in 10.0 mi WNW 6.9 mph - N/A   Clear
8:53 AM 75.0 °F - 64.0 °F 69% 29.87 in 10.0 mi NW 5.8 mph - N/A   Clear
9:53 AM 77.0 °F - 64.0 °F 64% 29.88 in 10.0 mi Variable 4.6 mph - N/A   Clear
10:53 AM 79.0 °F - 63.0 °F 58% 29.87 in 10.0 mi NW 8.1 mph - N/A   Clear
11:12 AM 81.0 °F 82.7 °F 64.9 °F 58% 29.90 in 10.0 mi Variable 6.9 mph - N/A   Mostly Cloudy
11:53 AM 80.1 °F 81.7 °F 64.0 °F 58% 29.88 in 10.0 mi WNW 8.1 mph - N/A   Mostly Cloudy
12:53 PM 80.1 °F 81.7 °F 64.0 °F 58% 29.88 in 10.0 mi NW 12.7 mph 19.6 mph N/A   Mostly Cloudy
1:53 PM 80.1 °F 81.9 °F 64.9 °F 60% 29.88 in 10.0 mi NNW 15.0 mph 20.7 mph N/A   Mostly Cloudy
2:53 PM 82.9 °F 84.4 °F 64.0 °F 53% 29.87 in 10.0 mi NW 10.4 mph 19.6 mph N/A   Partly Cloudy
3:53 PM 82.9 °F 84.6 °F 64.9 °F 54% 29.86 in 10.0 mi WNW 12.7 mph - N/A   Scattered Clouds
4:53 PM 82.9 °F 84.6 °F 64.9 °F 54% 29.86 in 10.0 mi WNW 16.1 mph - N/A   Scattered Clouds
5:53 PM 80.1 °F 80.7 °F 59.0 °F 48% 29.86 in 10.0 mi WNW 17.3 mph - N/A   Clear
6:53 PM 79.0 °F - 59.0 °F 50% 29.86 in 10.0 mi WNW 13.8 mph 21.9 mph N/A   Clear
7:53 PM 78.1 °F - 63.0 °F 60% 29.87 in 10.0 mi NW 12.7 mph - N/A   Scattered Clouds
8:53 PM 71.1 °F - 59.0 °F 66% 29.91 in 10.0 mi NNW 13.8 mph - N/A   Clear
9:53 PM 66.9 °F - 59.0 °F 76% 29.93 in 10.0 mi North 6.9 mph - N/A   Clear
10:53 PM 64.9 °F - 57.9 °F 78% 29.94 in 10.0 mi NNW 6.9 mph - N/A   Clear
11:53 PM 63.0 °F - 57.9 °F 84% 29.93 in 10.0 mi North 5.8 mph - N/A   Clear